owner,sensor,date,latitude,longitude,vertical_datum,wind_speed,wind_to_direction,wind_speed_of_gust,qcFlag 
TABS,ioos:station:wmo:42045:1,2010-02-01T00:00:00Z,26.2168,-96.4998,4.0,6.403631782,71.70614381,7.87,'11111222,11111222,11111222' 
TABS,ioos:station:wmo:42045:1,2010-02-01T00:30:00Z,26.2168,-96.4998,4.0,6.012129406,91.52540235,7.61,'11111222,11111222,11111222' 
TABS,ioos:station:wmo:42045:1,2010-02-01T01:00:00Z,26.2168,-96.4998,4.0,6.555188784,81.31324481,8.58,'11111222,11111222,11111222' 
TABS,ioos:station:wmo:42045:1,2010-02-01T01:30:00Z,26.2168,-96.4998,4.0,6.585954752,92.43706347,8.11,'11111222,11111222,11111222' 
TABS,ioos:station:wmo:42045:1,2010-02-01T02:00:00Z,26.2168,-96.4998,4.0,8.470419116,92.84255215,9.93,'11111222,11111222,11111222' 
TABS,ioos:station:wmo:42045:1,2010-02-01T02:30:00Z,26.2168,-96.4998,4.0,7.829584919,94.98282886,9.52,'11111222,11111222,11111222' 
TABS,ioos:station:wmo:42045:1,2010-02-01T03:00:00Z,26.2168,-96.4998,4.0,7.109352994,100.9468008,8.98,'11111222,11111222,11111222' 
TABS,ioos:station:wmo:42045:1,2010-02-01T03:30:00Z,26.2168,-96.4998,4.0,8.099049327,116.4704973,9.82,'11111222,11111222,11111222' 
TABS,ioos:station:wmo:42045:1,2010-02-01T04:00:00Z,26.2168,-96.4998,4.0,7.10583563,102.0219393,8.45,'11111222,11111222,11111222' 
TABS,ioos:station:wmo:42045:1,2010-02-01T04:30:00Z,26.2168,-96.4998,4.0,5.892172774,88.44354354,7.41,'11111222,11111222,11111222' 
TABS,ioos:station:wmo:42045:1,2010-02-01T05:00:00Z,26.2168,-96.4998,4.0,5.595578612,83.53501868,7.19,'11111222,11111222,11111222' 
TABS,ioos:station:wmo:42045:1,2010-02-01T05:30:00Z,26.2168,-96.4998,4.0,5.086944073,74.84328155,6.3,'11111222,11111222,11111222' 
TABS,ioos:station:wmo:42045:1,2010-02-01T06:00:00Z,26.2168,-96.4998,4.0,5.195122713,80.9180356,6.64,'11111222,11111222,11111222' 
TABS,ioos:station:wmo:42045:1,2010-02-01T06:30:00Z,26.2168,-96.4998,4.0,6.59273843,106.8411377,8.02,'11111222,11111222,11111222' 
TABS,ioos:station:wmo:42045:1,2010-02-01T07:00:00Z,26.2168,-96.4998,4.0,6.577788382,110.2811564,8.39,'11111222,11111222,11111222' 
TABS,ioos:station:wmo:42045:1,2010-02-01T07:30:00Z,26.2168,-96.4998,4.0,7.169553682,114.3847941,8.46,'11111222,11111222,11111222' 
TABS,ioos:station:wmo:42045:1,2010-02-01T08:00:00Z,26.2168,-96.4998,4.0,6.480223762,116.8817388,8.04,'11111222,11111222,11111222' 
TABS,ioos:station:wmo:42045:1,2010-02-01T08:30:00Z,26.2168,-96.4998,4.0,6.100270486,108.9402519,7.27,'11111222,11111222,11111222' 
TABS,ioos:station:wmo:42045:1,2010-02-01T09:00:00Z,26.2168,-96.4998,4.0,5.676979831,112.3640346,6.93,'11111222,11111222,11111222' 
TABS,ioos:station:wmo:42045:1,2010-02-01T09:30:00Z,26.2168,-96.4998,4.0,5.314978833,106.7306023,6.53,'11111222,11111222,11111222' 
TABS,ioos:station:wmo:42045:1,2010-02-01T10:00:00Z,26.2168,-96.4998,4.0,4.992684649,102.7283578,6.81,'11111222,11111222,11111222' 
TABS,ioos:station:wmo:42045:1,2010-02-01T10:30:00Z,26.2168,-96.4998,4.0,4.580764128,96.64447739,5.94,'11111222,11111222,11111222' 
TABS,ioos:station:wmo:42045:1,2010-02-01T11:00:00Z,26.2168,-96.4998,4.0,6.397655821,101.9075009,7.55,'11111222,11111222,11111222' 
TABS,ioos:station:wmo:42045:1,2010-02-01T11:30:00Z,26.2168,-96.4998,4.0,4.780261499,90.5997259,5.68,'11111222,11111222,11111222' 
TABS,ioos:station:wmo:42045:1,2010-02-01T12:00:00Z,26.2168,-96.4998,4.0,3.601610751,106.1205941,5.33,'11111222,11111222,11111222' 
TABS,ioos:station:wmo:42045:1,2010-02-01T12:30:00Z,26.2168,-96.4998,4.0,4.989639266,103.0896823,6.01,'11111222,11111222,11111222' 
TABS,ioos:station:wmo:42045:1,2010-02-01T13:00:00Z,26.2168,-96.4998,4.0,5.970971445,117.4237075,7.49,'11111222,11111222,11111222' 
TABS,ioos:station:wmo:42045:1,2010-02-01T13:30:00Z,26.2168,-96.4998,4.0,5.867503728,116.303389,7.06,'11111222,11111222,11111222' 
TABS,ioos:station:wmo:42045:1,2010-02-01T14:00:00Z,26.2168,-96.4998,4.0,6.123601881,106.2156763,7.26,'11111222,11111222,11111222' 
TABS,ioos:station:wmo:42045:1,2010-02-01T14:30:00Z,26.2168,-96.4998,4.0,3.175295262,82.76267398,4.46,'11111222,11111222,11111222' 
TABS,ioos:station:wmo:42045:1,2010-02-01T15:00:00Z,26.2168,-96.4998,4.0,3.971662121,60.59474376,5.02,'11111222,11111222,11111222' 
TABS,ioos:station:wmo:42045:1,2010-02-01T15:30:00Z,26.2168,-96.4998,4.0,2.28019736,57.35501528,4.08,'11111222,11111222,11111222' 
TABS,ioos:station:wmo:42045:1,2010-02-01T16:00:00Z,26.2168,-96.4998,4.0,1.019656805,187.8918944,1.81,'11111222,11111222,11111222' 
TABS,ioos:station:wmo:42045:1,2010-02-01T16:30:00Z,26.2168,-96.4998,4.0,2.078942039,135.390076,3.35,'11111222,11111222,11111222' 
TABS,ioos:station:wmo:42045:1,2010-02-01T17:00:00Z,26.2168,-96.4998,4.0,3.71597901,287.7035117,4.75,'11111222,11111222,11111222' 
TABS,ioos:station:wmo:42045:1,2010-02-01T17:30:00Z,26.2168,-96.4998,4.0,4.670042826,297.8270453,5.75,'11111222,11111222,11111222' 
TABS,ioos:station:wmo:42045:1,2010-02-01T18:00:00Z,26.2168,-96.4998,4.0,4.127529527,317.8475883,4.92,'11111222,11111222,11111222' 
TABS,ioos:station:wmo:42045:1,2010-02-01T18:30:00Z,26.2168,-96.4998,4.0,4.69691388,313.4470799,5.54,'11111222,11111222,11111222' 
TABS,ioos:station:wmo:42045:1,2010-02-01T19:00:00Z,26.2168,-96.4998,4.0,4.406915021,313.4368381,5.14,'11111222,11111222,11111222' 
TABS,ioos:station:wmo:42045:1,2010-02-01T19:30:00Z,26.2168,-96.4998,4.0,5.587289146,316.1601543,6.41,'11111222,11111222,11111222' 
TABS,ioos:station:wmo:42045:1,2010-02-01T20:00:00Z,26.2168,-96.4998,4.0,6.449123972,332.8785496,7.42,'11111222,11111222,11111222' 
TABS,ioos:station:wmo:42045:1,2010-02-01T20:30:00Z,26.2168,-96.4998,4.0,5.619332701,337.7250806,6.6,'11111222,11111222,11111222' 
TABS,ioos:station:wmo:42045:1,2010-02-01T21:00:00Z,26.2168,-96.4998,4.0,5.634509739,331.251433,6.71,'11111222,11111222,11111222' 
TABS,ioos:station:wmo:42045:1,2010-02-01T21:30:00Z,26.2168,-96.4998,4.0,6.46295598,336.5684401,7.69,'11111222,11111222,11111222' 
TABS,ioos:station:wmo:42045:1,2010-02-01T22:00:00Z,26.2168,-96.4998,4.0,5.769870016,348.3003882,6.77,'11111222,11111222,11111222' 
TABS,ioos:station:wmo:42045:1,2010-02-01T22:30:00Z,26.2168,-96.4998,4.0,5.913408493,345.3055774,6.94,'11111222,11111222,11111222' 
TABS,ioos:station:wmo:42045:1,2010-02-01T23:00:00Z,26.2168,-96.4998,4.0,5.507177135,348.1593834,6.7,'11111222,11111222,11111222' 
TABS,ioos:station:wmo:42045:1,2010-02-01T23:30:00Z,26.2168,-96.4998,4.0,5.409343768,347.9420495,6.33,'11111222,11111222,11111222' 
TABS,ioos:station:wmo:42045:1,2010-02-02T00:00:00Z,26.2168,-96.4998,4.0,5.592798941,343.0552714,6.6,'11111222,11111222,11111222' 
TABS,ioos:station:wmo:42045:1,2010-02-02T00:30:00Z,26.2168,-96.4998,4.0,4.985458856,348.1940248,5.65,'11111222,11111222,11111222' 
TABS,ioos:station:wmo:42045:1,2010-02-02T01:00:00Z,26.2168,-96.4998,4.0,3.788469348,345.633454,4.55,'11111222,11111222,11111222' 
TABS,ioos:station:wmo:42045:1,2010-02-02T01:30:00Z,26.2168,-96.4998,4.0,2.289737976,82.4710956,3.47,'11111222,11111222,11111222' 
TABS,ioos:station:wmo:42045:1,2010-02-02T02:00:00Z,26.2168,-96.4998,4.0,3.012391077,92.28342369,3.75,'11111222,11111222,11111222' 
TABS,ioos:station:wmo:42045:1,2010-02-02T02:30:00Z,26.2168,-96.4998,4.0,2.370232056,121.5445042,3.33,'11111222,11111222,11111222' 
TABS,ioos:station:wmo:42045:1,2010-02-02T03:00:00Z,26.2168,-96.4998,4.0,5.002979112,109.0147824,6.26,'11111222,11111222,11111222' 
TABS,ioos:station:wmo:42045:1,2010-02-02T03:30:00Z,26.2168,-96.4998,4.0,5.888777462,104.1546208,7.42,'11111222,11111222,11111222' 
TABS,ioos:station:wmo:42045:1,2010-02-02T04:00:00Z,26.2168,-96.4998,4.0,6.581443611,105.2402333,8.53,'11111222,11111222,11111222' 
TABS,ioos:station:wmo:42045:1,2010-02-02T04:30:00Z,26.2168,-96.4998,4.0,7.149839159,105.4944687,8.61,'11111222,11111222,11111222' 
TABS,ioos:station:wmo:42045:1,2010-02-02T05:00:00Z,26.2168,-96.4998,4.0,6.629660625,111.2240278,8.2,'11111222,11111222,11111222' 
TABS,ioos:station:wmo:42045:1,2010-02-02T05:30:00Z,26.2168,-96.4998,4.0,6.198144884,108.1430044,7.56,'11111222,11111222,11111222' 
TABS,ioos:station:wmo:42045:1,2010-02-02T06:00:00Z,26.2168,-96.4998,4.0,5.706005608,106.1802573,7.37,'11111222,11111222,11111222' 
TABS,ioos:station:wmo:42045:1,2010-02-02T06:30:00Z,26.2168,-96.4998,4.0,5.517100688,106.8587803,6.68,'11111222,11111222,11111222' 
TABS,ioos:station:wmo:42045:1,2010-02-02T07:00:00Z,26.2168,-96.4998,4.0,4.564646755,104.46284,5.82,'11111222,11111222,11111222' 
TABS,ioos:station:wmo:42045:1,2010-02-02T07:30:00Z,26.2168,-96.4998,4.0,4.170335718,114.6603559,5.15,'11111222,11111222,11111222' 
TABS,ioos:station:wmo:42045:1,2010-02-02T08:00:00Z,26.2168,-96.4998,4.0,5.965668445,301.9849474,8.42,'11111222,11111222,11111222' 
TABS,ioos:station:wmo:42045:1,2010-02-02T08:30:00Z,26.2168,-96.4998,4.0,6.986229312,315.1158777,8.43,'11111222,11111222,11111222' 
TABS,ioos:station:wmo:42045:1,2010-02-02T09:00:00Z,26.2168,-96.4998,4.0,6.210008052,313.6949805,7.41,'11111222,11111222,11111222' 
TABS,ioos:station:wmo:42045:1,2010-02-02T09:30:00Z,26.2168,-96.4998,4.0,6.66688083,309.8274852,7.8,'11111222,11111222,11111222' 
TABS,ioos:station:wmo:42045:1,2010-02-02T10:00:00Z,26.2168,-96.4998,4.0,6.53535768,302.693009,7.76,'11111222,11111222,11111222' 
TABS,ioos:station:wmo:42045:1,2010-02-02T10:30:00Z,26.2168,-96.4998,4.0,5.993738399,317.2310642,7.36,'11111222,11111222,11111222' 
TABS,ioos:station:wmo:42045:1,2010-02-02T11:00:00Z,26.2168,-96.4998,4.0,5.370083798,289.2446842,6.53,'11111222,11111222,11111222' 
TABS,ioos:station:wmo:42045:1,2010-02-02T11:30:00Z,26.2168,-96.4998,4.0,5.900389818,299.9977444,7.06,'11111222,11111222,11111222' 
TABS,ioos:station:wmo:42045:1,2010-02-02T12:00:00Z,26.2168,-96.4998,4.0,5.875644645,281.3864022,6.99,'11111222,11111222,11111222' 
TABS,ioos:station:wmo:42045:1,2010-02-02T12:30:00Z,26.2168,-96.4998,4.0,5.824946352,281.8886302,7.11,'11111222,11111222,11111222' 
TABS,ioos:station:wmo:42045:1,2010-02-02T13:00:00Z,26.2168,-96.4998,4.0,6.211867674,276.6559364,7.77,'11111222,11111222,11111222' 
TABS,ioos:station:wmo:42045:1,2010-02-02T13:30:00Z,26.2168,-96.4998,4.0,6.255405662,272.3821254,7.69,'11111222,11111222,11111222' 
TABS,ioos:station:wmo:42045:1,2010-02-02T14:00:00Z,26.2168,-96.4998,4.0,6.253079241,282.2803166,7.87,'11111222,11111222,11111222' 
TABS,ioos:station:wmo:42045:1,2010-02-02T14:30:00Z,26.2168,-96.4998,4.0,7.244667004,272.0566946,9.09,'11111222,11111222,11111222' 
TABS,ioos:station:wmo:42045:1,2010-02-02T15:00:00Z,26.2168,-96.4998,4.0,7.163972362,289.5730801,8.56,'11111222,11111222,11111222' 
TABS,ioos:station:wmo:42045:1,2010-02-02T15:30:00Z,26.2168,-96.4998,4.0,5.805385431,300.5405334,7.16,'11111222,11111222,11111222' 
TABS,ioos:station:wmo:42045:1,2010-02-02T16:00:00Z,26.2168,-96.4998,4.0,5.198018853,307.0241279,6.58,'11111222,11111222,11111222' 
TABS,ioos:station:wmo:42045:1,2010-02-02T16:30:00Z,26.2168,-96.4998,4.0,4.619361428,313.3332635,5.73,'11111222,11111222,11111222' 
TABS,ioos:station:wmo:42045:1,2010-02-02T17:00:00Z,26.2168,-96.4998,4.0,5.266213061,310.0701533,6.24,'11111222,11111222,11111222' 
TABS,ioos:station:wmo:42045:1,2010-02-02T17:30:00Z,26.2168,-96.4998,4.0,4.585368033,308.2694266,5.71,'11111222,11111222,11111222' 
TABS,ioos:station:wmo:42045:1,2010-02-02T18:00:00Z,26.2168,-96.4998,4.0,2.84597962,298.546124,3.95,'11111222,11111222,11111222' 
TABS,ioos:station:wmo:42045:1,2010-02-02T18:30:00Z,26.2168,-96.4998,4.0,1.10788086,329.0361054,2.46,'11111222,11111222,11111222' 
TABS,ioos:station:wmo:42045:1,2010-02-02T19:00:00Z,26.2168,-96.4998,4.0,2.183872707,247.6627285,3.58,'11111222,11111222,11111222' 
TABS,ioos:station:wmo:42045:1,2010-02-02T19:30:00Z,26.2168,-96.4998,4.0,2.700666584,268.726973,3.68,'11111222,11111222,11111222' 
TABS,ioos:station:wmo:42045:1,2010-02-02T20:00:00Z,26.2168,-96.4998,4.0,2.300543414,268.7546386,3.55,'11111222,11111222,11111222' 
TABS,ioos:station:wmo:42045:1,2010-02-02T20:30:00Z,26.2168,-96.4998,4.0,3.518465575,264.1273855,4.7,'11111222,11111222,11111222' 
TABS,ioos:station:wmo:42045:1,2010-02-02T21:00:00Z,26.2168,-96.4998,4.0,1.8732325,273.3664528,3.17,'11111222,11111222,11111222' 
TABS,ioos:station:wmo:42045:1,2010-02-02T21:30:00Z,26.2168,-96.4998,4.0,1.479222769,317.465648,2.82,'11111222,11111222,11111222' 
TABS,ioos:station:wmo:42045:1,2010-02-02T22:00:00Z,26.2168,-96.4998,4.0,1.89023808,324.0393564,2.84,'11111222,11111222,11111222' 
TABS,ioos:station:wmo:42045:1,2010-02-02T22:30:00Z,26.2168,-96.4998,4.0,3.356262803,328.7726117,4.49,'11111222,11111222,11111222' 
TABS,ioos:station:wmo:42045:1,2010-02-02T23:00:00Z,26.2168,-96.4998,4.0,3.378579583,325.3690701,4.44,'11111222,11111222,11111222' 
TABS,ioos:station:wmo:42045:1,2010-02-02T23:30:00Z,26.2168,-96.4998,4.0,3.32520676,320.6134867,4.51,'11111222,11111222,11111222' 
TABS,ioos:station:wmo:42045:1,2010-02-03T00:00:00Z,26.2168,-96.4998,4.0,2.865047993,326.5316609,3.84,'11111222,11111222,11111222' 
TABS,ioos:station:wmo:42045:1,2010-02-03T00:30:00Z,26.2168,-96.4998,4.0,2.206218484,314.63262,3.12,'11111222,11111222,11111222' 
TABS,ioos:station:wmo:42045:1,2010-02-03T01:00:00Z,26.2168,-96.4998,4.0,1.763660965,335.9054152,2.55,'11111222,11111222,11111222' 
TABS,ioos:station:wmo:42045:1,2010-02-03T01:30:00Z,26.2168,-96.4998,4.0,2.496898076,335.384974,3.51,'11111222,11111222,11111222' 
TABS,ioos:station:wmo:42045:1,2010-02-03T02:00:00Z,26.2168,-96.4998,4.0,2.388828165,339.66837,3.43,'11111222,11111222,11111222' 
TABS,ioos:station:wmo:42045:1,2010-02-03T02:30:00Z,26.2168,-96.4998,4.0,2.322283359,347.8189019,3.1,'11111222,11111222,11111222' 
TABS,ioos:station:wmo:42045:1,2010-02-03T03:00:00Z,26.2168,-96.4998,4.0,2.415988411,355.9648715,3.01,'11111222,11111222,11111222' 
TABS,ioos:station:wmo:42045:1,2010-02-03T03:30:00Z,26.2168,-96.4998,4.0,2.408318916,355.236159,3.12,'11111222,11111222,11111222' 
TABS,ioos:station:wmo:42045:1,2010-02-03T04:00:00Z,26.2168,-96.4998,4.0,3.301529948,25.09001323,4.01,'11111222,11111222,11111222' 
TABS,ioos:station:wmo:42045:1,2010-02-03T04:30:00Z,26.2168,-96.4998,4.0,3.786211827,80.11434879,6.27,'11111222,11111222,11111222' 
TABS,ioos:station:wmo:42045:1,2010-02-03T05:00:00Z,26.2168,-96.4998,4.0,7.851604931,106.1963712,9.34,'11111222,11111222,11111222' 
TABS,ioos:station:wmo:42045:1,2010-02-03T05:30:00Z,26.2168,-96.4998,4.0,7.779781488,107.7366339,9.12,'11111222,11111222,11111222' 
TABS,ioos:station:wmo:42045:1,2010-02-03T06:00:00Z,26.2168,-96.4998,4.0,8.531353937,123.9139286,11.68,'11111222,11111222,11111222' 
TABS,ioos:station:wmo:42045:1,2010-02-03T06:30:00Z,26.2168,-96.4998,4.0,7.582638063,114.1316408,10.8,'11111222,11111222,11111222' 
TABS,ioos:station:wmo:42045:1,2010-02-03T07:00:00Z,26.2168,-96.4998,4.0,7.110787579,112.4900722,8.63,'11111222,11111222,11111222' 
TABS,ioos:station:wmo:42045:1,2010-02-03T07:30:00Z,26.2168,-96.4998,4.0,8.984058103,108.294155,11.2,'11111222,11111222,11111222' 
TABS,ioos:station:wmo:42045:1,2010-02-03T08:00:00Z,26.2168,-96.4998,4.0,9.740020534,108.0632822,11.38,'11111222,11111222,11111222' 
TABS,ioos:station:wmo:42045:1,2010-02-03T08:30:00Z,26.2168,-96.4998,4.0,9.89274987,111.0919392,12.97,'11111222,11111222,11111222' 
TABS,ioos:station:wmo:42045:1,2010-02-03T09:00:00Z,26.2168,-96.4998,4.0,9.648818581,107.7405266,11.88,'11111222,11111222,11111222' 
TABS,ioos:station:wmo:42045:1,2010-02-03T09:30:00Z,26.2168,-96.4998,4.0,10.16803324,104.8156513,12.86,'11111222,11111222,11111222' 
TABS,ioos:station:wmo:42045:1,2010-02-03T10:00:00Z,26.2168,-96.4998,4.0,10.5488625,109.7236172,12.67,'11111222,11111222,11111222' 
TABS,ioos:station:wmo:42045:1,2010-02-03T10:30:00Z,26.2168,-96.4998,4.0,10.18258317,108.6132628,12.53,'11111222,11111222,11111222' 
TABS,ioos:station:wmo:42045:1,2010-02-03T11:00:00Z,26.2168,-96.4998,4.0,10.16541686,106.6348426,12.85,'11111222,11111222,11111222' 
TABS,ioos:station:wmo:42045:1,2010-02-03T11:30:00Z,26.2168,-96.4998,4.0,13.22671539,107.4215927,17.42,'11111222,11111222,11111222' 
TABS,ioos:station:wmo:42045:1,2010-02-03T12:00:00Z,26.2168,-96.4998,4.0,12.75987853,108.2223326,15.57,'11111222,11111222,11111222' 
TABS,ioos:station:wmo:42045:1,2010-02-03T12:30:00Z,26.2168,-96.4998,4.0,13.24535013,113.6817583,16.85,'11111222,11111222,11111222' 
TABS,ioos:station:wmo:42045:1,2010-02-03T13:00:00Z,26.2168,-96.4998,4.0,14.01001428,112.5384405,16.62,'11111222,11111222,11111222' 
TABS,ioos:station:wmo:42045:1,2010-02-03T13:30:00Z,26.2168,-96.4998,4.0,12.94054095,114.664178,16.61,'11111222,11111222,11111222' 
TABS,ioos:station:wmo:42045:1,2010-02-03T14:00:00Z,26.2168,-96.4998,4.0,13.63558946,116.7157426,17.86,'11111222,11111222,11111222' 
TABS,ioos:station:wmo:42045:1,2010-02-03T14:30:00Z,26.2168,-96.4998,4.0,13.69473256,119.5791738,17.2,'11111222,11111222,11111222' 
TABS,ioos:station:wmo:42045:1,2010-02-03T15:00:00Z,26.2168,-96.4998,4.0,14.05640068,121.3835386,17.34,'11111222,11111222,11111222' 
TABS,ioos:station:wmo:42045:1,2010-02-03T15:30:00Z,26.2168,-96.4998,4.0,13.36455012,121.7875997,16.56,'11111222,11111222,11111222' 
TABS,ioos:station:wmo:42045:1,2010-02-03T16:00:00Z,26.2168,-96.4998,4.0,14.2004683,123.9477907,18.4,'11111222,11111222,11111222' 
TABS,ioos:station:wmo:42045:1,2010-02-03T16:30:00Z,26.2168,-96.4998,4.0,14.87159037,124.8124529,18.85,'11111222,11111222,11111222' 
TABS,ioos:station:wmo:42045:1,2010-02-03T17:00:00Z,26.2168,-96.4998,4.0,13.87012978,127.1180851,17.62,'11111222,11111222,11111222' 
TABS,ioos:station:wmo:42045:1,2010-02-03T17:30:00Z,26.2168,-96.4998,4.0,14.43289645,129.292529,17.93,'11111222,11111222,11111222' 
TABS,ioos:station:wmo:42045:1,2010-02-03T18:00:00Z,26.2168,-96.4998,4.0,15.07589135,136.8011341,18.81,'11111222,11111222,11111222' 
TABS,ioos:station:wmo:42045:1,2010-02-03T18:30:00Z,26.2168,-96.4998,4.0,13.86178199,137.8072518,18.96,'11111222,11111222,11111222' 
TABS,ioos:station:wmo:42045:1,2010-02-03T19:00:00Z,26.2168,-96.4998,4.0,13.69219486,138.84981,16.99,'11111222,11111222,11111222' 
TABS,ioos:station:wmo:42045:1,2010-02-03T19:30:00Z,26.2168,-96.4998,4.0,12.79962499,132.2137886,16.33,'11111222,11111222,11111222' 
TABS,ioos:station:wmo:42045:1,2010-02-03T20:00:00Z,26.2168,-96.4998,4.0,12.71018883,130.9487738,16.19,'11111222,11111222,11111222' 
TABS,ioos:station:wmo:42045:1,2010-02-03T20:30:00Z,26.2168,-96.4998,4.0,12.08829186,131.3110961,14.63,'11111222,11111222,11111222' 
TABS,ioos:station:wmo:42045:1,2010-02-03T21:00:00Z,26.2168,-96.4998,4.0,11.76931604,126.0133933,14.36,'11111222,11111222,11111222' 
TABS,ioos:station:wmo:42045:1,2010-02-03T21:30:00Z,26.2168,-96.4998,4.0,11.11370325,125.034594,13.39,'11111222,11111222,11111222' 
TABS,ioos:station:wmo:42045:1,2010-02-03T22:00:00Z,26.2168,-96.4998,4.0,9.916007261,126.8008952,12.53,'11111222,11111222,11111222' 
TABS,ioos:station:wmo:42045:1,2010-02-03T22:30:00Z,26.2168,-96.4998,4.0,9.058266942,125.1115415,11.27,'11111222,11111222,11111222' 
TABS,ioos:station:wmo:42045:1,2010-02-03T23:00:00Z,26.2168,-96.4998,4.0,8.405147232,105.739782,10.23,'11111222,11111222,11111222' 
TABS,ioos:station:wmo:42045:1,2010-02-03T23:30:00Z,26.2168,-96.4998,4.0,8.694193465,91.78003533,10.47,'11111222,11111222,11111222' 
TABS,ioos:station:wmo:42045:1,2010-02-04T00:00:00Z,26.2168,-96.4998,4.0,8.572800009,96.36273965,10.51,'11111222,11111222,11111222' 
TABS,ioos:station:wmo:42045:1,2010-02-04T00:30:00Z,26.2168,-96.4998,4.0,8.010274652,102.8395315,9.94,'11111222,11111222,11111222' 
TABS,ioos:station:wmo:42045:1,2010-02-04T01:00:00Z,26.2168,-96.4998,4.0,7.190048679,93.02995449,9.55,'11111222,11111222,11111222' 
TABS,ioos:station:wmo:42045:1,2010-02-04T01:30:00Z,26.2168,-96.4998,4.0,6.512296062,86.47813394,8.24,'11111222,11111222,11111222' 
TABS,ioos:station:wmo:42045:1,2010-02-04T02:00:00Z,26.2168,-96.4998,4.0,6.586083814,85.99454768,10.34,'11111222,11111222,11111222' 
TABS,ioos:station:wmo:42045:1,2010-02-04T02:30:00Z,26.2168,-96.4998,4.0,5.920076013,90.29076799,7.5,'11111222,11111222,11111222' 
TABS,ioos:station:wmo:42045:1,2010-02-04T03:00:00Z,26.2168,-96.4998,4.0,6.562994743,96.56233657,8.57,'11111222,11111222,11111222' 
TABS,ioos:station:wmo:42045:1,2010-02-04T03:30:00Z,26.2168,-96.4998,4.0,4.210760026,91.08904326,5.8,'11111222,11111222,11111222' 
TABS,ioos:station:wmo:42045:1,2010-02-04T04:00:00Z,26.2168,-96.4998,4.0,4.075929342,97.61362488,5.58,'11111222,11111222,11111222' 
TABS,ioos:station:wmo:42045:1,2010-02-04T04:30:00Z,26.2168,-96.4998,4.0,4.841900453,95.45195927,6.4,'11111222,11111222,11111222' 
TABS,ioos:station:wmo:42045:1,2010-02-04T05:00:00Z,26.2168,-96.4998,4.0,3.810472412,117.1706232,5.56,'11111222,11111222,11111222' 
TABS,ioos:station:wmo:42045:1,2010-02-04T05:30:00Z,26.2168,-96.4998,4.0,3.408958785,124.4828945,5.04,'11111222,11111222,11111222' 
TABS,ioos:station:wmo:42045:1,2010-02-04T06:00:00Z,26.2168,-96.4998,4.0,1.529477035,83.61803347,3.19,'11111222,11111222,11111222' 
TABS,ioos:station:wmo:42045:1,2010-02-04T06:30:00Z,26.2168,-96.4998,4.0,3.585080194,169.0664192,4.98,'11111222,11111222,11111222' 
TABS,ioos:station:wmo:42045:1,2010-02-04T07:00:00Z,26.2168,-96.4998,4.0,4.685392193,212.536979,6.6,'11111222,11111222,11111222' 
TABS,ioos:station:wmo:42045:1,2010-02-04T07:30:00Z,26.2168,-96.4998,4.0,5.456418239,205.8607804,7.23,'11111222,11111222,11111222' 
TABS,ioos:station:wmo:42045:1,2010-02-04T08:00:00Z,26.2168,-96.4998,4.0,5.223839584,221.0415881,6.88,'11111222,11111222,11111222' 
TABS,ioos:station:wmo:42045:1,2010-02-04T08:30:00Z,26.2168,-96.4998,4.0,5.417647091,195.5242852,6.68,'11111222,11111222,11111222' 
TABS,ioos:station:wmo:42045:1,2010-02-04T09:00:00Z,26.2168,-96.4998,4.0,6.797425983,191.111748,8.27,'11111222,11111222,11111222' 
TABS,ioos:station:wmo:42045:1,2010-02-04T09:30:00Z,26.2168,-96.4998,4.0,5.68264903,195.7239772,7.1,'11111222,11111222,11111222' 
TABS,ioos:station:wmo:42045:1,2010-02-04T10:00:00Z,26.2168,-96.4998,4.0,8.888025653,199.6583249,11.18,'11111222,11111222,11111222' 
TABS,ioos:station:wmo:42045:1,2010-02-04T10:30:00Z,26.2168,-96.4998,4.0,2.913485885,185.5151092,5.09,'11111222,11111222,11111222' 
TABS,ioos:station:wmo:42045:1,2010-02-04T11:00:00Z,26.2168,-96.4998,4.0,2.851596044,190.9160674,3.99,'11111222,11111222,11111222' 
TABS,ioos:station:wmo:42045:1,2010-02-04T11:30:00Z,26.2168,-96.4998,4.0,5.486638315,166.7238445,6.5,'11111222,11111222,11111222' 
TABS,ioos:station:wmo:42045:1,2010-02-04T12:00:00Z,26.2168,-96.4998,4.0,5.306533709,174.2681435,6.77,'11111222,11111222,11111222' 
TABS,ioos:station:wmo:42045:1,2010-02-04T12:30:00Z,26.2168,-96.4998,4.0,6.008935014,170.1303422,7.22,'11111222,11111222,11111222' 
TABS,ioos:station:wmo:42045:1,2010-02-04T13:00:00Z,26.2168,-96.4998,4.0,4.870164268,179.5296203,6.32,'11111222,11111222,11111222' 
TABS,ioos:station:wmo:42045:1,2010-02-04T13:30:00Z,26.2168,-96.4998,4.0,4.449224652,188.5309561,5.81,'11111222,11111222,11111222' 
TABS,ioos:station:wmo:42045:1,2010-02-04T14:00:00Z,26.2168,-96.4998,4.0,3.773830945,182.5820847,4.71,'11111222,11111222,11111222' 
TABS,ioos:station:wmo:42045:1,2010-02-04T14:30:00Z,26.2168,-96.4998,4.0,3.042909792,174.7205578,4.33,'11111222,11111222,11111222' 
TABS,ioos:station:wmo:42045:1,2010-02-04T15:00:00Z,26.2168,-96.4998,4.0,1.990904317,200.8930388,3.38,'11111222,11111222,11111222' 
TABS,ioos:station:wmo:42045:1,2010-02-04T15:30:00Z,26.2168,-96.4998,4.0,4.511873225,181.6512907,5.56,'11111222,11111222,11111222' 
TABS,ioos:station:wmo:42045:1,2010-02-04T16:00:00Z,26.2168,-96.4998,4.0,4.41426098,188.9930595,5.44,'11111222,11111222,11111222' 
TABS,ioos:station:wmo:42045:1,2010-02-04T16:30:00Z,26.2168,-96.4998,4.0,4.709352397,188.3023523,5.92,'11111222,11111222,11111222' 
TABS,ioos:station:wmo:42045:1,2010-02-04T17:00:00Z,26.2168,-96.4998,4.0,4.548626166,183.5293925,5.9,'11111222,11111222,11111222' 
TABS,ioos:station:wmo:42045:1,2010-02-04T17:30:00Z,26.2168,-96.4998,4.0,4.046751784,213.1011626,5.06,'11111222,11111222,11111222' 
TABS,ioos:station:wmo:42045:1,2010-02-04T18:00:00Z,26.2168,-96.4998,4.0,3.557358571,210.0247058,4.53,'11111222,11111222,11111222' 
TABS,ioos:station:wmo:42045:1,2010-02-04T18:30:00Z,26.2168,-96.4998,4.0,5.489162049,158.295766,6.68,'11111222,11111222,11111222' 